Location: ??????
(55.0357°N, 38.6195°E)
Time: 06:21:15
(UTC+00:00)

Cosmos 1420 Rocket - Visible Passes

Search period start: 16 July 2024 00:00
Search period end: 26 July 2024 00:00
Orbit: 752 x 778 km, 74.0° (Epoch: 15 July)

Date Brightness Start Highest point End Pass type
(mag) Time Alt. Az. Time Alt. Az. Time Alt. Az.
16 Jul 5.4 20:47:12 16° SE 20:50:09 25° E 20:54:24 10° NE visible
16 Jul 4.2 22:27:24 15° SW 22:31:44 70° WNW 22:37:02 10° NNE visible
17 Jul 6.0 00:10:49 10° W 00:14:45 20° NW 00:18:39 10° NNE visible
17 Jul 5.9 20:09:50 11° SE 20:12:36 16° E 20:15:47 10° ENE visible
17 Jul 4.0 21:50:02 20° SSW 21:53:48 81° ESE 21:59:07 10° NNE visible
17 Jul 5.7 23:31:59 10° W 23:36:26 27° NW 23:40:54 10° NNE visible
18 Jul 4.3 21:12:38 21° S 21:15:59 53° ESE 21:21:08 10° NE visible
18 Jul 5.2 22:53:22 10° WSW 22:58:14 36° NW 23:03:07 10° NNE visible
19 Jul 4.9 20:35:12 19° SSE 20:38:15 35° ESE 20:43:01 10° NE visible
19 Jul 4.7 22:15:22 12° SW 22:20:08 51° NW 22:25:18 10° NNE visible
20 Jul 6.4 00:00:05 10° WNW 00:03:26 17° NNW 00:06:48 10° N visible
20 Jul 5.4 19:57:43 15° SE 20:00:37 23° E 20:04:42 10° NE visible
20 Jul 4.2 21:37:55 16° SW 21:42:08 74° WNW 21:47:26 10° NNE visible
20 Jul 6.1 23:21:04 10° W 23:25:04 21° NW 23:29:04 10° NNE visible
21 Jul 5.8 19:20:13 10° SE 19:23:05 15° E 19:25:59 10° ENE visible
21 Jul 4.0 21:00:24 19° SSW 21:04:13 75° ESE 21:09:30 10° NNE visible
21 Jul 5.7 22:42:15 10° WSW 22:46:47 28° NW 22:51:19 10° NNE visible
22 Jul 6.6 00:28:52 10° NW 00:30:42 12° NNW 00:32:32 10° N visible
22 Jul 4.3 20:22:51 19° S 20:26:24 49° ESE 20:31:29 10° NE visible
22 Jul 5.2 22:03:40 10° WSW 22:08:35 38° NW 22:13:31 10° NNE visible
22 Jul 6.5 23:49:27 10° WNW 23:52:11 14° NNW 23:54:54 10° N visible
23 Jul 4.9 19:45:15 16° SSE 19:48:41 32° ESE 19:53:20 10° NE visible
23 Jul 4.6 21:25:25 11° SW 21:30:30 54° NW 21:35:41 10° NNE visible
23 Jul 6.4 23:10:16 10° WNW 23:13:44 17° NNW 23:17:13 10° N visible
24 Jul 5.4 19:07:36 12° SE 19:11:04 21° E 19:14:59 10° NE visible
24 Jul 4.1 20:47:47 13° SSW 20:52:30 79° WNW 20:57:48 10° NNE visible
24 Jul 6.1 22:31:17 10° W 22:35:22 22° NW 22:39:28 10° NNE visible
25 Jul 6.9 00:18:39 10° NNW 00:19:32 10° NNW 00:20:25 10° N visible
25 Jul 5.8 18:30:58 10° ESE 18:33:32 14° E 18:36:07 10° ENE visible
25 Jul 4.0 20:10:03 14° SSW 20:14:36 70° ESE 20:19:52 10° NNE visible
25 Jul 5.7 21:52:30 10° WSW 21:57:06 29° NW 22:01:42 10° NNE visible
25 Jul 6.7 23:38:59 10° NW 23:40:58 12° NNW 23:42:57 10° N visible
